Location: Dappach
(48.9767°N, 9.6998°E)
Time: 20:08:06
(UTC+00:00)

ASTEX 1 - Pass Details

Date: 23 May 2024
Orbit: 715 x 740 km, 92.7° (Epoch: 23 June)

Event Time Altitude Azimuth Distance (km) Brightness Sun altitude
Rises 02:28:05 0° 158° (SSE) 3,150 6.4 -8.5°
Reaches altitude 10° 02:30:25 10° 153° (SSE) 2,229 5.7 -8.3°
Maximum altitude 02:35:11 52° 78° (ENE) 908 4.3 -7.7°
Drops below altitude 10° 02:39:58 10° 3° (N) 2,230 6.7 -7.2°
Sets 02:42:18 0° 359° (N) 3,152 7.4 -6.9°
